GW7078 Weather Reports


time (UTC)temp
F
wind
direction
speed
knots
gust
knots
rain 1hr
in
rain 24hr
in
rain mn
in
humidity
%
barometer
mb
20260502164007 46 344 1.7 5.2 0.00 0.00 0.00 41 1017.8
20260502163506 46 26 1.7 3.5 0.00 0.00 0.00 41 1017.8
20260502163020 46 267 0.0 4.3 0.00 0.00 0.00 43 1017.9
20260502162514 46 329 0.9 5.2 0.00 0.00 0.00 46 1017.8
20260502162010 45 350 0.9 5.2 0.00 0.00 0.00 42 1017.8
20260502161520 45 273 0.9 3.5 0.00 0.00 0.00 43 1017.8
20260502161009 45 317 1.7 3.5 0.00 0.00 0.00 41 1017.9
20260502160509 45 30 1.7 3.5 0.00 0.00 0.00 42 1017.9
20260502152009 44 21 2.6 6.1 0.00 0.00 0.00 44 1017.7
20260502151516 44 346 0.9 4.3 0.00 0.00 0.00 45 1017.8
20260502151007 44 313 0.9 5.2 0.00 0.00 0.00 45 1017.8
20260502150510 44 256 1.7 7.0 0.00 0.00 0.00 45 1017.8
20260502130508 41 5 0.0 3.5 0.00 0.00 0.00 67 1017.9
20260502123512 42 270 1.7 3.5 0.00 0.00 0.00 67 1017.9
20260502123025 43 261 0.9 1.7 0.00 0.00 0.00 67 1017.8
20260502122509 42 236 0.0 1.7 0.00 0.00 0.00 69 1017.9
20260502122003 42 291 0.9 1.7 0.00 0.00 0.00 71 1017.8
20260502121512 42 296 0.0 1.7 0.00 0.00 0.00 72 1017.8
20260502121006 41 297 0.0 1.7 0.00 0.00 0.00 73 1017.8
20260502120507 40 324 0.0 1.7 0.00 0.00 0.00 74 1017.8
20260502115508 39 100 0.0 1.7 0.00 0.00 0.00 80 1017.8
20260502115009 38 100 0.0 0.0 0.00 0.00 0.00 83 1017.8
20260502114520 37 100 0.0 0.0 0.00 0.00 0.00 84 1017.7
20260502114012 36 100 0.0 0.0 0.00 0.00 0.00 85 1017.7
20260502113508 35 100 0.0 0.0 0.00 0.00 0.00 85 1017.7
20260502113024 35 100 0.0 0.0 0.00 0.00 0.00 85 1017.6
20260502112508 34 100 0.0 0.0 0.00 0.00 0.00 85 1017.6
20260502112014 34 100 0.0 0.0 0.00 0.00 0.00 85 1017.5
20260502111525 34 100 0.0 0.0 0.00 0.00 0.00 85 1017.5
20260502111005 34 100 0.0 0.0 0.00 0.00 0.00 84 1017.4
20260502110504 34 100 0.0 0.0 0.00 0.00 0.00 84 1017.4
20260502110012 35 100 0.0 0.0 0.00 0.00 0.00 84 1017.4
20260502105509 35 100 0.0 0.0 0.00 0.00 0.00 83 1017.5
20260502105011 35 100 0.0 0.0 0.00 0.00 0.00 83 1017.3
20260502104518 35 100 0.0 0.0 0.00 0.00 0.00 82 1017.3
20260502104006 35 100 0.0 0.0 0.00 0.00 0.00 82 1017.2
20260502103510 35 100 0.0 0.0 0.00 0.00 0.00 81 1017.3
20260502103024 35 100 0.0 0.0 0.00 0.00 0.00 81 1017.3
20260502102510 35 100 0.0 0.0 0.00 0.00 0.00 81 1017.3
20260502102016 36 100 0.0 0.0 0.00 0.00 0.00 81 1017.2
20260502101523 36 100 0.0 0.0 0.00 0.00 0.00 81 1017.2
20260502101008 36 100 0.0 0.0 0.00 0.00 0.00 81 1017.3
20260502100505 36 100 0.0 0.0 0.00 0.00 0.00 81 1017.3
20260502091504 36 100 0.0 0.0 0.00 0.00 0.00 79 1017.1
20260502091003 36 100 0.0 0.0 0.00 0.00 0.00 79 1017.0
20260502090503 36 100 0.0 0.0 0.00 0.00 0.00 79 1017.0
20260502071520 38 87 0.0 1.7 0.00 0.00 0.00 74 1016.7
20260502071009 38 87 0.0 1.7 0.00 0.00 0.00 74 1016.8
20260502070508 38 87 0.0 1.7 0.00 0.00 0.00 74 1016.9
20260502070032 38 87 0.0 1.7 0.00 0.00 0.00 73 1016.8
20260502065509 38 87 0.0 1.7 0.00 0.00 0.00 73 1016.7
20260502065005 38 87 0.0 1.7 0.00 0.00 0.00 74 1016.8
20260502064510 38 88 0.0 0.9 0.00 0.00 0.00 73 1017.0
20260502064003 38 88 0.0 1.7 0.00 0.00 0.00 73 1017.1
20260502063507 38 88 0.0 1.7 0.00 0.00 0.00 73 1017.1
20260502063014 38 89 0.0 1.7 0.00 0.00 0.00 73 1017.1
20260502062508 38 89 0.0 1.7 0.00 0.00 0.00 74 1017.1
20260502062010 38 89 0.0 1.7 0.00 0.00 0.00 73 1017.1
20260502061520 38 96 0.0 1.7 0.00 0.00 0.00 73 1017.1
20260502061006 38 175 0.0 1.7 0.00 0.00 0.00 74 1017.2
20260502060511 38 175 0.0 1.7 0.00 0.00 0.00 74 1017.2
20260502060022 38 175 0.0 1.7 0.00 0.00 0.00 75 1017.2
20260502055510 38 175 0.0 1.7 0.00 0.00 0.00 78 1017.2
20260502055009 38 175 0.0 0.9 0.00 0.00 0.00 78 1017.2
20260502054525 38 175 0.0 0.0 0.00 0.00 0.00 77 1017.3
20260502054006 38 175 0.0 0.0 0.00 0.00 0.00 77 1017.3
20260502053504 38 175 0.0 1.7 0.00 0.00 0.00 76 1017.3
20260502053010 38 175 0.0 1.7 0.00 0.00 0.00 75 1017.3
20260502052512 38 175 0.0 1.7 0.00 0.00 0.00 75 1017.4
20260502052007 38 175 0.0 1.7 0.00 0.00 0.00 73 1017.3
20260502051523 38 175 0.0 1.7 0.00 0.00 0.00 73 1017.2
20260502051007 39 175 0.0 1.7 0.00 0.00 0.00 72 1017.1
20260502050507 39 175 0.0 1.7 0.00 0.00 0.00 70 1017.2
20260502050021 39 175 0.0 1.7 0.00 0.00 0.00 70 1017.1
20260502045507 39 171 0.9 2.6 0.00 0.00 0.00 70 1017.1
20260502045011 39 67 0.0 2.6 0.00 0.00 0.00 71 1017.1
20260502044524 39 72 0.0 2.6 0.00 0.00 0.00 71 1017.0
20260502044010 39 82 0.0 1.7 0.00 0.00 0.00 70 1017.0
20260502043512 39 67 0.0 1.7 0.00 0.00 0.00 70 1016.9
20260502043027 39 63 0.0 1.7 0.00 0.00 0.00 69 1016.9
20260502042504 39 78 0.0 1.7 0.00 0.00 0.00 70 1016.9
20260502042007 39 95 0.0 5.2 0.00 0.00 0.00 69 1016.9
20260502041514 39 95 1.7 5.2 0.00 0.00 0.00 68 1016.9
20260502041007 39 24 0.9 3.5 0.00 0.00 0.00 68 1016.9
20260502040506 39 40 0.9 3.5 0.00 0.00 0.00 69 1017.0
20260502040032 39 65 0.9 3.5 0.00 0.00 0.00 68 1016.9
20260502035509 39 25 1.7 3.5 0.00 0.00 0.00 68 1016.9
20260502035014 39 40 1.7 4.3 0.00 0.00 0.00 68 1016.7
20260502034524 39 5 0.9 6.1 0.00 0.00 0.00 68 1016.7
20260502034008 40 125 1.7 6.1 0.00 0.00 0.00 68 1016.6
20260502033508 40 43 0.0 5.2 0.00 0.00 0.00 68 1016.5
20260502033025 40 31 1.7 4.3 0.00 0.00 0.00 67 1016.5
20260502032509 41 45 0.9 5.2 0.00 0.00 0.00 67 1016.6
20260502032012 41 41 1.7 5.2 0.00 0.00 0.00 67 1016.5
20260502031511 41 102 0.9 5.2 0.00 0.00 0.00 65 1016.5
20260502031006 42 28 1.7 5.2 0.00 0.00 0.00 64 1016.6
20260502030510 43 37 1.7 4.3 0.00 0.00 0.00 63 1016.4
20260502030017 44 51 0.9 3.5 0.00 0.00 0.00 61 1016.3
20260502025510 44 68 0.9 3.5 0.00 0.00 0.00 55 1016.1
20260502025008 44 226 0.9 2.6 0.00 0.00 0.00 56 1016.0
20260502024535 44 297 0.0 1.7 0.00 0.00 0.00 56 1016.0
20260502024010 44 352 0.0 1.7 0.00 0.00 0.00 57 1016.0
20260502023510 44 352 0.0 2.6 0.00 0.00 0.00 56 1016.0
20260502023026 44 239 0.9 2.6 0.00 0.00 0.00 57 1016.0
20260502022511 44 338 0.9 2.6 0.00 0.00 0.00 57 1016.0
20260502022010 44 17 0.0 1.7 0.00 0.00 0.00 58 1016.0
20260502021530 44 329 0.0 1.7 0.00 0.00 0.00 57 1015.9
20260502021008 44 327 0.0 2.6 0.00 0.00 0.00 57 1015.9
20260502020503 44 327 0.0 2.6 0.00 0.00 0.00 56 1015.9
20260502020012 44 331 0.9 2.6 0.00 0.00 0.00 57 1015.8
20260502015510 44 275 0.9 2.6 0.00 0.00 0.00 58 1015.8
20260502015010 44 306 0.0 2.6 0.00 0.00 0.00 56 1015.8
20260502014529 44 306 0.0 1.7 0.00 0.00 0.00 57 1015.7
20260502014009 44 318 0.0 1.7 0.00 0.00 0.00 57 1015.7
20260502013508 44 289 0.0 1.7 0.00 0.00 0.00 56 1015.7
20260502013022 44 224 0.0 0.9 0.00 0.00 0.00 57 1015.6
20260502012507 44 224 0.0 1.7 0.00 0.00 0.00 58 1015.5
20260502012015 45 223 0.0 1.7 0.00 0.00 0.00 56 1015.5
20260502011528 44 236 0.0 3.5 0.00 0.00 0.00 56 1015.5
20260502011007 45 258 1.7 3.5 0.00 0.00 0.00 57 1015.5
20260502010511 45 352 0.0 2.6 0.00 0.00 0.00 57 1015.5
20260502010029 45 266 0.9 1.7 0.00 0.00 0.00 57 1015.5
20260502005505 45 313 0.0 1.7 0.00 0.00 0.00 58 1015.5
20260502005007 45 318 0.0 1.7 0.00 0.00 0.00 58 1015.4
20260502004516 45 328 0.0 1.7 0.00 0.00 0.00 58 1015.3
20260502004010 45 346 0.0 1.7 0.00 0.00 0.00 58 1015.1
20260502003513 45 347 0.0 1.7 0.00 0.00 0.00 57 1015.2
20260502003026 45 352 0.0 1.7 0.00 0.00 0.00 58 1015.2
20260502002506 45 300 0.0 3.5 0.00 0.00 0.00 57 1015.2
20260502002010 45 326 0.0 3.5 0.00 0.00 0.00 58 1015.2
20260502001523 45 341 0.9 1.7 0.00 0.00 0.00 57 1015.1
20260502001008 45 298 0.0 3.5 0.00 0.00 0.00 58 1015.1
20260502000515 45 323 0.9 3.5 0.00 0.00 0.00 58 1015.0
20260502000025 45 313 0.0 1.7 0.00 0.00 0.00 59 1014.9
20260501235514 45 333 0.9 1.7 0.00 0.00 0.00 60 1014.9
20260501235010 45 288 0.0 3.5 0.00 0.00 0.00 59 1014.9
20260501234513 45 299 0.9 3.5 0.00 0.00 0.00 58 1014.9
20260501234008 45 17 0.0 2.6 0.00 0.00 0.00 61 1014.8
20260501233505 45 20 1.7 2.6 0.00 0.00 0.00 59 1014.7
20260501233017 45 322 0.0 2.6 0.00 0.00 0.00 60 1014.7
20260501232508 45 325 0.0 2.6 0.00 0.00 0.00 59 1014.7
20260501232012 45 9 1.7 2.6 0.00 0.00 0.00 60 1014.8
20260501231523 45 219 0.9 4.3 0.00 0.00 0.00 63 1014.8
20260501231015 45 288 0.9 4.3 0.00 0.00 0.00 63 1014.8
20260501230512 46 240 0.0 3.5 0.00 0.00 0.00 64 1014.8
20260501230026 46 235 0.9 3.5 0.00 0.00 0.00 61 1014.8
20260501225515 46 326 0.9 2.6 0.00 0.00 0.00 56 1014.8
20260501225013 46 264 0.0 1.7 0.00 0.00 0.00 56 1014.7
20260501224534 46 352 0.0 1.7 0.00 0.00 0.00 56 1014.7
20260501224016 46 322 0.9 3.5 0.00 0.00 0.00 56 1014.7
20260501223509 47 334 0.9 4.3 0.00 0.00 0.00 55 1014.7
20260501223014 47 338 0.9 7.0 0.00 0.00 0.00 55 1014.7
20260501222507 48 346 1.7 7.0 0.00 0.00 0.00 52 1014.6
20260501222010 48 300 0.0 2.6 0.00 0.00 0.00 51 1014.5
20260501221524 48 316 0.9 3.5 0.00 0.00 0.00 49 1014.5
20260501221014 48 26 0.9 3.5 0.00 0.00 0.00 50 1014.4
20260501220510 48 360 1.7 8.7 0.00 0.00 0.00 49 1014.3
20260501220024 49 342 2.6 7.8 0.00 0.00 0.00 48 1014.3
20260501215508 49 44 0.9 2.6 0.00 0.00 0.00 48 1014.3
20260501215008 49 248 0.9 3.5 0.00 0.00 0.00 47 1014.2
20260501214509 49 346 1.7 3.5 0.00 0.00 0.00 48 1014.3
20260501214005 49 253 0.9 3.5 0.00 0.00 0.00 47 1014.2
20260501213505 49 310 0.9 3.5 0.00 0.00 0.00 49 1014.2
20260501213014 49 296 0.9 3.5 0.00 0.00 0.00 49 1014.1
20260501212506 49 360 0.9 3.5 0.00 0.00 0.00 48 1014.1
20260501212006 49 300 1.7 3.5 0.00 0.00 0.00 51 1014.0
20260501211518 49 277 0.9 5.2 0.00 0.00 0.00 49 1013.9
20260501211006 49 11 0.9 5.2 0.00 0.00 0.00 49 1013.9
20260501210508 49 255 1.7 4.3 0.00 0.00 0.00 49 1013.9
20260501210023 49 26 0.9 4.3 0.00 0.00 0.00 49 1013.9
20260501205511 49 346 0.9 4.3 0.00 0.00 0.00 48 1013.8
20260501205010 50 326 0.9 5.2 0.00 0.00 0.00 47 1013.8
20260501204526 50 310 0.9 5.2 0.00 0.00 0.00 48 1013.8
20260501204003 50 21 2.6 4.3 0.00 0.00 0.00 48 1013.8
20260501203503 49 342 0.9 4.3 0.00 0.00 0.00 48 1013.8
20260501203030 49 15 0.9 4.3 0.00 0.00 0.00 47 1013.9
20260501202506 49 294 1.7 2.6 0.00 0.00 0.00 47 1013.9
20260501202009 49 340 0.0 3.5 0.00 0.00 0.00 50 1013.9
20260501201515 49 42 1.7 4.3 0.00 0.00 0.00 48 1013.8
20260501201006 49 347 1.7 4.3 0.00 0.00 0.00 46 1013.8
20260501200513 50 300 0.9 3.5 0.00 0.00 0.00 47 1013.8
20260501200021 50 49 0.9 3.5 0.00 0.00 0.00 49 1013.7
20260501195509 50 317 0.0 5.2 0.00 0.00 0.00 47 1013.8
20260501195012 50 54 1.7 5.2 0.00 0.00 0.00 48 1013.8
20260501194524 50 123 0.9 4.3 0.00 0.00 0.00 48 1013.7
20260501194013 50 5 1.7 4.3 0.00 0.00 0.00 46 1013.7
20260501193509 50 17 0.9 3.5 0.00 0.00 0.00 48 1013.7
20260501193009 50 340 1.7 3.5 0.00 0.00 0.00 49 1013.6
20260501192507 49 22 0.9 4.3 0.00 0.00 0.00 49 1013.6
20260501192004 49 34 0.9 5.2 0.00 0.00 0.00 48 1013.7
20260501191515 49 26 0.9 5.2 0.00 0.00 0.00 49 1013.7
20260501191007 49 331 0.9 4.3 0.00 0.00 0.00 49 1013.6
20260501190507 49 352 1.7 5.2 0.00 0.00 0.00 49 1013.6
20260501190020 49 94 0.9 5.2 0.00 0.00 0.00 47 1013.4
20260501185509 50 268 1.7 7.0 0.00 0.00 0.00 48 1013.4
20260501185010 50 5 2.6 7.0 0.00 0.00 0.00 48 1013.4
20260501184548 49 38 1.7 3.5 0.00 0.00 0.00 46 1013.4
20260501184010 49 305 0.9 3.5 0.00 0.00 0.00 47 1013.3
20260501183513 49 339 0.9 5.2 0.00 0.00 0.00 46 1013.3
20260501183028 49 344 1.7 5.2 0.00 0.00 0.00 46 1013.3
20260501182510 49 269 0.9 4.3 0.00 0.00 0.00 46 1013.3
20260501182007 49 350 0.9 4.3 0.00 0.00 0.00 45 1013.3
20260501181512 49 352 0.9 2.6 0.00 0.00 0.00 46 1013.3
20260501181004 49 90 0.9 3.5 0.00 0.00 0.00 48 1013.3
20260501180507 49 36 1.7 4.3 0.00 0.00 0.00 48 1013.3
20260501180022 49 41 0.0 4.3 0.00 0.00 0.00 50 1013.2
20260501175511 49 342 0.9 4.3 0.00 0.00 0.00 49 1013.2
20260501175008 49 252 0.9 4.3 0.00 0.00 0.00 49 1013.2
20260501174523 48 239 0.9 2.6 0.00 0.00 0.00 50 1013.2
20260501174007 48 352 0.9 2.6 0.00 0.00 0.00 53 1013.2
20260501173510 48 335 0.9 5.2 0.00 0.00 0.00 51 1013.3
20260501173028 48 340 0.9 5.2 0.00 0.00 0.00 52 1013.3
20260501172507 48 10 0.9 4.3 0.00 0.00 0.00 53 1013.4
20260501172019 49 242 1.7 5.2 0.00 0.00 0.00 52 1013.3
20260501171528 49 87 1.7 5.2 0.00 0.00 0.00 51 1013.3
20260501171006 49 32 1.7 3.5 0.00 0.00 0.00 51 1013.3
20260501170507 49 24 0.9 2.6 0.00 0.00 0.00 52 1013.3
20260501170016 48 352 0.9 5.2 0.00 0.00 0.00 54 1013.3
20260501165509 48 334 0.9 5.2 0.00 0.00 0.00 54 1013.3
20260501165007 48 23 1.7 3.5 0.00 0.00 0.00 53 1013.2